Time,TemperatureF,DewpointF,PressureIn,WindDirection,WindDirectionDegrees,WindSpeedMPH,WindSpeedGustMPH,Humidity,HourlyPrecipIn,Conditions,Clouds,dailyrainin,SoftwareType,DateUTC
2013-04-25 00:01:00,64.4,48.9,30.01,North,0,3.0,4.0,57,0.00,,,0.00,meteohub,2013-04-25 04:01:00,
2013-04-25 00:02:00,64.4,48.9,30.01,North,0,0.0,4.0,57,0.00,,,0.00,meteohub,2013-04-25 04:02:00,
2013-04-25 00:07:00,64.2,49.1,30.01,SSW,202,0.0,4.0,58,0.00,,,0.00,meteohub,2013-04-25 04:07:00,
2013-04-25 00:12:00,63.9,49.3,30.01,NNE,22,0.0,4.0,59,0.00,,,0.00,meteohub,2013-04-25 04:12:00,
2013-04-25 00:17:00,63.9,49.3,30.01,NW,315,0.0,4.0,59,0.00,,,0.00,meteohub,2013-04-25 04:17:00,
2013-04-25 00:22:00,63.9,49.6,30.01,NW,315,0.0,3.0,60,0.00,,,0.00,meteohub,2013-04-25 04:22:00,
2013-04-25 00:27:00,63.7,49.5,30.01,NW,315,0.0,3.0,60,0.00,,,0.00,meteohub,2013-04-25 04:27:00,
2013-04-25 00:32:00,63.5,49.8,30.01,NW,315,0.0,0.0,61,0.00,,,0.00,meteohub,2013-04-25 04:32:00,
2013-04-25 00:37:00,63.1,49.8,30.01,NW,315,0.0,0.0,62,0.00,,,0.00,meteohub,2013-04-25 04:37:00,
2013-04-25 00:42:00,63.1,50.4,30.01,NW,315,0.0,0.0,63,0.00,,,0.00,meteohub,2013-04-25 04:42:00,
2013-04-25 00:47:00,63.1,50.4,30.01,NW,315,0.0,3.0,63,0.00,,,0.00,meteohub,2013-04-25 04:47:00,
2013-04-25 00:52:00,63.0,50.5,30.01,NW,315,0.0,3.0,64,0.00,,,0.00,meteohub,2013-04-25 04:52:00,
2013-04-25 00:57:00,62.6,50.2,30.01,NW,315,0.0,3.0,64,0.00,,,0.00,meteohub,2013-04-25 04:57:00,
2013-04-25 01:02:00,62.4,50.5,30.01,ENE,68,0.0,3.0,65,0.00,,,0.00,meteohub,2013-04-25 05:02:00,
2013-04-25 01:07:00,62.1,50.5,30.01,ENE,68,0.0,3.0,66,0.00,,,0.00,meteohub,2013-04-25 05:07:00,
2013-04-25 01:12:00,61.7,50.7,30.01,ENE,68,0.0,3.0,67,0.00,,,0.00,meteohub,2013-04-25 05:12:00,
2013-04-25 01:17:00,61.3,50.7,30.01,ENE,68,0.0,0.0,68,0.00,,,0.00,meteohub,2013-04-25 05:17:00,
2013-04-25 01:22:00,61.0,50.7,30.01,ENE,68,0.0,0.0,69,0.00,,,0.00,meteohub,2013-04-25 05:22:00,
2013-04-25 01:27:00,60.8,50.5,30.01,ENE,68,0.0,0.0,69,0.00,,,0.00,meteohub,2013-04-25 05:27:00,
2013-04-25 01:32:00,60.4,51.1,30.01,ENE,68,0.0,0.0,71,0.00,,,0.00,meteohub,2013-04-25 05:32:00,
2013-04-25 01:37:00,60.1,51.1,30.01,ENE,68,0.0,0.0,72,0.00,,,0.00,meteohub,2013-04-25 05:37:00,
2013-04-25 01:42:00,59.9,51.3,30.01,ENE,68,0.0,0.0,73,0.00,,,0.00,meteohub,2013-04-25 05:42:00,
2013-04-25 01:47:00,59.5,51.3,30.01,ENE,68,0.0,0.0,74,0.00,,,0.00,meteohub,2013-04-25 05:47:00,
2013-04-25 01:52:00,59.4,52.2,30.01,ENE,68,0.0,0.0,77,0.00,,,0.00,meteohub,2013-04-25 05:52:00,
2013-04-25 01:57:00,59.2,52.7,30.01,ENE,68,0.0,0.0,79,0.00,,,0.00,meteohub,2013-04-25 05:57:00,
2013-04-25 02:02:00,59.0,52.9,30.01,ENE,68,0.0,0.0,80,0.00,,,0.00,meteohub,2013-04-25 06:02:00,
2013-04-25 02:07:00,58.6,52.9,30.01,ENE,68,0.0,0.0,81,0.00,,,0.00,meteohub,2013-04-25 06:07:00,
2013-04-25 02:12:00,58.5,53.1,30.01,ENE,68,0.0,0.0,82,0.00,,,0.00,meteohub,2013-04-25 06:12:00,
2013-04-25 02:17:00,58.3,53.1,30.01,ENE,68,0.0,0.0,83,0.00,,,0.00,meteohub,2013-04-25 06:17:00,
2013-04-25 02:22:00,58.1,53.2,30.01,ENE,68,0.0,0.0,84,0.00,,,0.00,meteohub,2013-04-25 06:22:00,
2013-04-25 02:27:00,57.9,53.1,30.01,ENE,68,0.0,0.0,84,0.00,,,0.00,meteohub,2013-04-25 06:27:00,
2013-04-25 02:32:00,58.1,53.6,30.01,ENE,68,0.0,0.0,85,0.00,,,0.00,meteohub,2013-04-25 06:32:00,
2013-04-25 02:37:00,58.3,54.1,30.01,ENE,68,0.0,0.0,86,0.00,,,0.00,meteohub,2013-04-25 06:37:00,
2013-04-25 02:42:00,58.5,54.7,30.04,ENE,68,0.0,0.0,87,0.00,,,0.00,meteohub,2013-04-25 06:42:00,
2013-04-25 02:47:00,58.8,55.0,30.04,ENE,68,0.0,0.0,87,0.00,,,0.00,meteohub,2013-04-25 06:47:00,
2013-04-25 02:52:00,59.2,55.4,30.04,ENE,68,0.0,0.0,87,0.00,,,0.00,meteohub,2013-04-25 06:52:00,
2013-04-25 02:57:00,59.4,55.2,30.04,ENE,68,0.0,0.0,86,0.00,,,0.00,meteohub,2013-04-25 06:57:00,
2013-04-25 03:02:00,59.7,55.6,30.04,SSE,158,0.0,0.0,86,0.00,,,0.00,meteohub,2013-04-25 07:02:00,
2013-04-25 03:07:00,60.1,55.6,30.04,SE,135,0.0,4.0,85,0.00,,,0.00,meteohub,2013-04-25 07:07:00,
2013-04-25 03:12:00,60.6,55.4,30.04,SE,135,3.0,4.0,83,0.00,,,0.00,meteohub,2013-04-25 07:12:00,
2013-04-25 03:17:00,61.3,55.4,30.04,NNE,22,0.0,4.0,81,0.00,,,0.00,meteohub,2013-04-25 07:17:00,
2013-04-25 03:22:00,62.6,54.5,30.04,WSW,248,3.0,5.0,75,0.00,,,0.00,meteohub,2013-04-25 07:22:00,
2013-04-25 03:27:00,63.0,53.8,30.04,WNW,292,0.0,5.0,72,0.00,,,0.00,meteohub,2013-04-25 07:27:00,
2013-04-25 03:32:00,63.1,52.9,30.04,SSW,202,3.0,5.0,69,0.00,,,0.00,meteohub,2013-04-25 07:32:00,
2013-04-25 03:37:00,63.1,52.0,30.04,East,90,3.0,4.0,67,0.00,,,0.00,meteohub,2013-04-25 07:37:00,
2013-04-25 03:42:00,63.1,51.6,30.04,WNW,292,4.0,4.0,66,0.00,,,0.00,meteohub,2013-04-25 07:42:00,
2013-04-25 03:47:00,63.1,51.3,30.04,SE,135,4.0,4.0,65,0.00,,,0.00,meteohub,2013-04-25 07:47:00,
2013-04-25 03:52:00,63.1,50.7,30.04,SE,135,4.0,6.0,64,0.00,,,0.00,meteohub,2013-04-25 07:52:00,
2013-04-25 03:57:00,63.0,50.5,30.07,SW,225,8.0,8.0,64,0.00,,,0.00,meteohub,2013-04-25 07:57:00,
2013-04-25 04:02:00,63.0,50.5,30.07,NE,45,3.0,8.0,64,0.00,,,0.00,meteohub,2013-04-25 08:02:00,
2013-04-25 04:07:00,62.6,49.5,30.07,South,180,3.0,8.0,62,0.00,,,0.00,meteohub,2013-04-25 08:07:00,
2013-04-25 04:12:00,62.2,48.2,30.07,SSE,158,9.0,9.0,60,0.00,,,0.00,meteohub,2013-04-25 08:12:00,
2013-04-25 04:17:00,62.2,46.8,30.07,ESE,112,6.0,9.0,57,0.00,,,0.00,meteohub,2013-04-25 08:17:00,
2013-04-25 04:22:00,62.1,46.6,30.07,SSW,202,3.0,10.0,57,0.00,,,0.00,meteohub,2013-04-25 08:22:00,
2013-04-25 04:27:00,61.9,46.0,30.10,ESE,112,6.0,10.0,56,0.00,,,0.00,meteohub,2013-04-25 08:27:00,
2013-04-25 04:32:00,61.7,45.9,30.10,SSE,158,3.0,10.0,56,0.00,,,0.00,meteohub,2013-04-25 08:32:00,
2013-04-25 04:38:00,61.5,44.2,30.10,SSE,158,3.0,11.0,53,0.00,,,0.00,meteohub,2013-04-25 08:38:00,
2013-04-25 04:43:00,61.2,43.3,30.10,SE,135,4.0,11.0,52,0.00,,,0.00,meteohub,2013-04-25 08:43:00,
2013-04-25 04:48:00,61.0,43.7,30.10,SSE,158,3.0,11.0,53,0.00,,,0.00,meteohub,2013-04-25 08:48:00,
2013-04-25 04:53:00,60.6,43.0,30.10,SSW,202,8.0,8.0,52,0.00,,,0.00,meteohub,2013-04-25 08:53:00,
2013-04-25 04:58:00,60.3,41.5,30.10,SSE,158,4.0,8.0,50,0.00,,,0.00,meteohub,2013-04-25 08:58:00,
2013-04-25 05:03:00,60.1,40.8,30.10,South,180,8.0,10.0,49,0.00,,,0.00,meteohub,2013-04-25 09:03:00,
2013-04-25 05:08:00,59.9,39.6,30.10,East,90,4.0,10.0,47,0.00,,,0.00,meteohub,2013-04-25 09:08:00,
2013-04-25 05:13:00,59.7,39.4,30.10,ESE,112,3.0,10.0,47,0.00,,,0.00,meteohub,2013-04-25 09:13:00,
2013-04-25 05:18:00,59.7,39.4,30.10,SSW,202,2.0,8.0,47,0.00,,,0.00,meteohub,2013-04-25 09:18:00,
2013-04-25 05:23:00,59.4,39.7,30.10,East,90,2.0,8.0,48,0.00,,,0.00,meteohub,2013-04-25 09:23:00,
2013-04-25 05:28:00,59.4,39.7,30.13,SSE,158,5.0,6.0,48,0.00,,,0.00,meteohub,2013-04-25 09:28:00,
2013-04-25 05:33:00,59.2,39.6,30.13,South,180,5.0,6.0,48,0.00,,,0.00,meteohub,2013-04-25 09:33:00,
2013-04-25 05:38:00,59.0,38.8,30.13,ESE,112,3.0,6.0,47,0.00,,,0.00,meteohub,2013-04-25 09:38:00,
2013-04-25 05:43:00,58.8,39.2,30.13,South,180,2.0,10.0,48,0.00,,,0.00,meteohub,2013-04-25 09:43:00,
2013-04-25 05:48:00,58.5,38.8,30.13,SSE,158,4.0,10.0,48,0.00,,,0.00,meteohub,2013-04-25 09:48:00,
2013-04-25 05:53:00,58.3,38.7,30.13,ESE,112,7.0,10.0,48,0.00,,,0.00,meteohub,2013-04-25 09:53:00,
2013-04-25 05:58:00,58.1,39.0,30.16,SE,135,4.0,8.0,49,0.00,,,0.00,meteohub,2013-04-25 09:58:00,
2013-04-25 06:03:00,57.9,38.8,30.16,SW,225,5.0,9.0,49,0.00,,,0.00,meteohub,2013-04-25 10:03:00,
2013-04-25 06:08:00,57.4,37.4,30.16,SSE,158,3.0,9.0,47,0.00,,,0.00,meteohub,2013-04-25 10:08:00,
2013-04-25 06:13:00,57.0,37.0,30.16,SSW,202,4.0,10.0,47,0.00,,,0.00,meteohub,2013-04-25 10:13:00,
2013-04-25 06:18:00,56.8,36.3,30.16,South,180,3.0,11.0,46,0.00,,,0.00,meteohub,2013-04-25 10:18:00,
2013-04-25 06:23:00,56.5,36.0,30.16,SSW,202,2.0,11.0,46,0.00,,,0.00,meteohub,2013-04-25 10:23:00,
2013-04-25 06:28:00,56.3,35.2,30.19,SE,135,3.0,11.0,45,0.00,,,0.00,meteohub,2013-04-25 10:28:00,
2013-04-25 06:33:00,56.1,35.1,30.19,ESE,112,2.0,8.0,45,0.00,,,0.00,meteohub,2013-04-25 10:33:00,
2013-04-25 06:38:00,55.9,34.9,30.19,SSE,158,4.0,8.0,45,0.00,,,0.00,meteohub,2013-04-25 10:38:00,
2013-04-25 06:43:00,55.9,35.4,30.19,SE,135,4.0,8.0,46,0.00,,,0.00,meteohub,2013-04-25 10:43:00,
2013-04-25 06:48:00,55.8,34.7,30.19,South,180,4.0,8.0,45,0.00,,,0.00,meteohub,2013-04-25 10:48:00,
2013-04-25 06:53:00,55.6,34.5,30.19,South,180,4.0,7.0,45,0.00,,,0.00,meteohub,2013-04-25 10:53:00,
2013-04-25 06:58:00,55.2,34.2,30.19,ENE,68,4.0,8.0,45,0.00,,,0.00,meteohub,2013-04-25 10:58:00,
2013-04-25 07:03:00,55.0,32.9,30.19,SSE,158,6.0,8.0,43,0.00,,,0.00,meteohub,2013-04-25 11:03:00,
2013-04-25 07:08:00,54.9,32.2,30.19,SSE,158,6.0,10.0,42,0.00,,,0.00,meteohub,2013-04-25 11:08:00,
2013-04-25 07:13:00,54.7,32.0,30.19,SE,135,2.0,10.0,42,0.00,,,0.00,meteohub,2013-04-25 11:13:00,
2013-04-25 07:18:00,54.5,31.3,30.19,SSE,158,4.0,10.0,41,0.00,,,0.00,meteohub,2013-04-25 11:18:00,
2013-04-25 07:23:00,54.5,31.3,30.19,SSE,158,5.0,10.0,41,0.00,,,0.00,meteohub,2013-04-25 11:23:00,
2013-04-25 07:28:00,54.3,31.1,30.19,WSW,248,5.0,6.0,41,0.00,,,0.00,meteohub,2013-04-25 11:28:00,
2013-04-25 07:33:00,54.3,31.6,30.19,SSE,158,5.0,7.0,42,0.00,,,0.00,meteohub,2013-04-25 11:33:00,
2013-04-25 07:38:00,54.3,31.6,30.19,SE,135,3.0,7.0,42,0.00,,,0.00,meteohub,2013-04-25 11:38:00,
2013-04-25 07:43:00,54.1,31.5,30.22,SSW,202,3.0,7.0,42,0.00,,,0.00,meteohub,2013-04-25 11:43:00,
2013-04-25 07:48:00,53.8,30.6,30.22,SSW,202,0.0,6.0,41,0.00,,,0.00,meteohub,2013-04-25 11:48:00,
2013-04-25 07:53:00,53.6,30.4,30.22,SSW,202,5.0,6.0,41,0.00,,,0.00,meteohub,2013-04-25 11:53:00,
2013-04-25 07:58:00,53.6,30.4,30.22,SSE,158,5.0,7.0,41,0.00,,,0.00,meteohub,2013-04-25 11:58:00,
2013-04-25 08:03:00,53.4,30.4,30.22,SE,135,5.0,8.0,41,0.00,,,0.00,meteohub,2013-04-25 12:03:00,
2013-04-25 08:08:00,53.2,30.2,30.22,SSW,202,3.0,8.0,41,0.00,,,0.00,meteohub,2013-04-25 12:08:00,
2013-04-25 08:14:00,53.4,30.4,30.22,SSE,158,3.0,10.0,41,0.00,,,0.00,meteohub,2013-04-25 12:14:00,
2013-04-25 08:19:00,53.4,30.4,30.22,South,180,8.0,10.0,41,0.00,,,0.00,meteohub,2013-04-25 12:19:00,
2013-04-25 08:24:00,53.4,30.9,30.22,SSE,158,4.0,10.0,42,0.00,,,0.00,meteohub,2013-04-25 12:24:00,
2013-04-25 08:29:00,53.4,30.4,30.22,SSE,158,9.0,9.0,41,0.00,,,0.00,meteohub,2013-04-25 12:29:00,
2013-04-25 08:34:00,53.4,30.9,30.22,SSE,158,4.0,9.0,42,0.00,,,0.00,meteohub,2013-04-25 12:34:00,
2013-04-25 08:39:00,53.2,30.2,30.22,South,180,3.0,9.0,41,0.00,,,0.00,meteohub,2013-04-25 12:39:00,
2013-04-25 08:44:00,53.6,31.1,30.22,SSE,158,3.0,9.0,42,0.00,,,0.00,meteohub,2013-04-25 12:44:00,
2013-04-25 08:49:00,53.8,31.3,30.22,South,180,4.0,8.0,42,0.00,,,0.00,meteohub,2013-04-25 12:49:00,
2013-04-25 08:54:00,54.0,30.7,30.22,ESE,112,8.0,8.0,41,0.00,,,0.00,meteohub,2013-04-25 12:54:00,
2013-04-25 08:59:00,54.1,30.9,30.22,SSE,158,4.0,8.0,41,0.00,,,0.00,meteohub,2013-04-25 12:59:00,
2013-04-25 09:04:00,54.3,30.6,30.22,SSE,158,6.0,9.0,40,0.00,,,0.00,meteohub,2013-04-25 13:04:00,
2013-04-25 09:09:00,54.3,30.6,30.22,SSE,158,8.0,9.0,40,0.00,,,0.00,meteohub,2013-04-25 13:09:00,
2013-04-25 09:14:00,54.5,30.7,30.22,SE,135,2.0,9.0,40,0.00,,,0.00,meteohub,2013-04-25 13:14:00,
2013-04-25 09:19:00,54.5,30.7,30.22,ESE,112,0.0,9.0,40,0.00,,,0.00,meteohub,2013-04-25 13:19:00,
2013-04-25 09:24:00,54.5,30.7,30.22,West,270,3.0,8.0,40,0.00,,,0.00,meteohub,2013-04-25 13:24:00,
2013-04-25 09:29:00,54.9,31.6,30.25,SSW,202,0.0,8.0,41,0.00,,,0.00,meteohub,2013-04-25 13:29:00,
2013-04-25 09:34:00,55.4,31.5,30.25,South,180,7.0,8.0,40,0.00,,,0.00,meteohub,2013-04-25 13:34:00,
2013-04-25 09:39:00,55.8,31.8,30.25,SE,135,4.0,8.0,40,0.00,,,0.00,meteohub,2013-04-25 13:39:00,
2013-04-25 09:44:00,56.1,31.5,30.22,ESE,112,5.0,8.0,39,0.00,,,0.00,meteohub,2013-04-25 13:44:00,
2013-04-25 09:49:00,56.5,32.4,30.22,West,270,3.0,8.0,40,0.00,,,0.00,meteohub,2013-04-25 13:49:00,
2013-04-25 09:54:00,56.8,32.2,30.22,SE,135,2.0,8.0,39,0.00,,,0.00,meteohub,2013-04-25 13:54:00,
2013-04-25 09:59:00,56.8,32.2,30.25,ESE,112,3.0,8.0,39,0.00,,,0.00,meteohub,2013-04-25 13:59:00,
2013-04-25 10:04:00,56.7,32.0,30.25,SSE,158,3.0,6.0,39,0.00,,,0.00,meteohub,2013-04-25 14:04:00,
2013-04-25 10:09:00,56.8,32.2,30.25,South,180,3.0,7.0,39,0.00,,,0.00,meteohub,2013-04-25 14:09:00,
2013-04-25 10:14:00,57.6,33.4,30.25,ESE,112,3.0,7.0,40,0.00,,,0.00,meteohub,2013-04-25 14:14:00,
2013-04-25 10:19:00,58.1,33.3,30.25,ESE,112,0.0,7.0,39,0.00,,,0.00,meteohub,2013-04-25 14:19:00,
2013-04-25 10:24:00,58.5,33.6,30.25,ESE,112,3.0,5.0,39,0.00,,,0.00,meteohub,2013-04-25 14:24:00,
2013-04-25 10:29:00,59.2,33.6,30.25,SSW,202,4.0,5.0,38,0.00,,,0.00,meteohub,2013-04-25 14:29:00,
2013-04-25 10:34:00,59.4,33.1,30.25,NNE,22,0.0,6.0,37,0.00,,,0.00,meteohub,2013-04-25 14:34:00,
2013-04-25 10:39:00,59.5,33.3,30.25,SSW,202,4.0,6.0,37,0.00,,,0.00,meteohub,2013-04-25 14:39:00,
2013-04-25 10:44:00,59.5,33.3,30.25,WNW,292,3.0,6.0,37,0.00,,,0.00,meteohub,2013-04-25 14:44:00,
2013-04-25 10:49:00,60.4,34.0,30.25,West,270,5.0,6.0,37,0.00,,,0.00,meteohub,2013-04-25 14:49:00,
2013-04-25 10:54:00,61.0,33.8,30.25,ESE,112,6.0,8.0,36,0.00,,,0.00,meteohub,2013-04-25 14:54:00,
2013-04-25 10:59:00,61.2,34.0,30.25,WSW,248,4.0,8.0,36,0.00,,,0.00,meteohub,2013-04-25 14:59:00,
2013-04-25 11:04:00,61.5,33.6,30.25,SSW,202,0.0,8.0,35,0.00,,,0.00,meteohub,2013-04-25 15:04:00,
2013-04-25 11:09:00,61.7,34.5,30.25,West,270,3.0,10.0,36,0.00,,,0.00,meteohub,2013-04-25 15:09:00,
2013-04-25 11:14:00,62.1,35.4,30.25,West,270,3.0,10.0,37,0.00,,,0.00,meteohub,2013-04-25 15:14:00,
2013-04-25 11:19:00,61.5,33.6,30.25,East,90,3.0,10.0,35,0.00,,,0.00,meteohub,2013-04-25 15:19:00,
2013-04-25 11:24:00,62.2,34.9,30.25,NNE,22,2.0,5.0,36,0.00,,,0.00,meteohub,2013-04-25 15:24:00,
2013-04-25 11:29:00,62.4,34.3,30.25,SSW,202,3.0,5.0,35,0.00,,,0.00,meteohub,2013-04-25 15:29:00,
2013-04-25 11:34:00,62.1,34.9,30.25,WNW,292,3.0,8.0,36,0.00,,,0.00,meteohub,2013-04-25 15:34:00,
2013-04-25 11:39:00,62.1,35.4,30.25,West,270,3.0,8.0,37,0.00,,,0.00,meteohub,2013-04-25 15:39:00,
2013-04-25 11:44:00,62.1,34.9,30.22,SE,135,6.0,8.0,36,0.00,,,0.00,meteohub,2013-04-25 15:44:00,
2013-04-25 11:49:00,62.6,35.2,30.22,ESE,112,3.0,6.0,36,0.00,,,0.00,meteohub,2013-04-25 15:49:00,
2013-04-25 11:54:00,63.0,34.9,30.22,NW,315,0.0,6.0,35,0.00,,,0.00,meteohub,2013-04-25 15:54:00,
2013-04-25 11:59:00,63.5,35.4,30.22,SE,135,4.0,6.0,35,0.00,,,0.00,meteohub,2013-04-25 15:59:00,
2013-04-25 12:04:00,63.9,35.6,30.22,SSE,158,4.0,7.0,35,0.00,,,0.00,meteohub,2013-04-25 16:04:00,
2013-04-25 12:09:00,64.4,36.9,30.22,SE,135,4.0,7.0,36,0.00,,,0.00,meteohub,2013-04-25 16:09:00,
2013-04-25 12:14:00,64.8,36.5,30.22,WSW,248,4.0,7.0,35,0.00,,,0.00,meteohub,2013-04-25 16:14:00,
2013-04-25 12:19:00,64.2,36.0,30.22,WNW,292,3.0,6.0,35,0.00,,,0.00,meteohub,2013-04-25 16:19:00,
2013-04-25 12:24:00,64.4,36.1,30.22,SE,135,5.0,5.0,35,0.00,,,0.00,meteohub,2013-04-25 16:24:00,
2013-04-25 12:29:00,65.3,36.1,30.22,SSE,158,4.0,5.0,34,0.00,,,0.00,meteohub,2013-04-25 16:29:00,
2013-04-25 12:34:00,65.7,36.5,30.22,ESE,112,5.0,8.0,34,0.00,,,0.00,meteohub,2013-04-25 16:34:00,
2013-04-25 12:39:00,65.5,36.3,30.22,ESE,112,3.0,10.0,34,0.00,,,0.00,meteohub,2013-04-25 16:39:00,
2013-04-25 12:44:00,66.9,37.6,30.22,East,90,6.0,10.0,34,0.00,,,0.00,meteohub,2013-04-25 16:44:00,
2013-04-25 12:49:00,67.5,38.1,30.22,West,270,3.0,8.0,34,0.00,,,0.00,meteohub,2013-04-25 16:49:00,
2013-04-25 12:54:00,67.1,37.8,30.22,West,270,4.0,6.0,34,0.00,,,0.00,meteohub,2013-04-25 16:54:00,
2013-04-25 12:59:00,66.6,37.4,30.22,West,270,2.0,6.0,34,0.00,,,0.00,meteohub,2013-04-25 16:59:00,
2013-04-25 13:04:00,68.0,37.8,30.22,ESE,112,5.0,6.0,33,0.00,,,0.00,meteohub,2013-04-25 17:04:00,
2013-04-25 13:09:00,67.8,37.6,30.22,SE,135,6.0,7.0,33,0.00,,,0.00,meteohub,2013-04-25 17:09:00,
2013-04-25 13:14:00,66.6,36.5,30.22,SSW,202,5.0,7.0,33,0.00,,,0.00,meteohub,2013-04-25 17:14:00,
2013-04-25 13:19:00,66.9,36.9,30.22,South,180,2.0,8.0,33,0.00,,,0.00,meteohub,2013-04-25 17:19:00,
2013-04-25 13:24:00,68.2,37.9,30.22,SSW,202,3.0,8.0,33,0.00,,,0.00,meteohub,2013-04-25 17:24:00,
2013-04-25 13:29:00,67.5,37.4,30.22,NNE,22,4.0,8.0,33,0.00,,,0.00,meteohub,2013-04-25 17:29:00,
2013-04-25 13:34:00,68.5,38.3,30.22,SSW,202,3.0,8.0,33,0.00,,,0.00,meteohub,2013-04-25 17:34:00,
2013-04-25 13:39:00,68.7,37.6,30.22,SSW,202,3.0,8.0,32,0.00,,,0.00,meteohub,2013-04-25 17:39:00,
2013-04-25 13:44:00,67.8,36.9,30.22,South,180,4.0,8.0,32,0.00,,,0.00,meteohub,2013-04-25 17:44:00,
2013-04-25 13:49:00,68.7,37.6,30.22,ESE,112,3.0,7.0,32,0.00,,,0.00,meteohub,2013-04-25 17:49:00,
2013-04-25 13:54:00,69.6,38.5,30.22,NNE,22,3.0,7.0,32,0.00,,,0.00,meteohub,2013-04-25 17:54:00,
2013-04-25 13:59:00,70.0,38.8,30.22,SSE,158,8.0,8.0,32,0.00,,,0.00,meteohub,2013-04-25 17:59:00,
2013-04-25 14:04:00,69.8,38.7,30.22,ENE,68,5.0,8.0,32,0.00,,,0.00,meteohub,2013-04-25 18:04:00,
2013-04-25 14:09:00,70.2,37.2,30.22,ESE,112,3.0,8.0,30,0.00,,,0.00,meteohub,2013-04-25 18:09:00,
2013-04-25 14:15:00,69.1,36.3,30.22,WNW,292,3.0,8.0,30,0.00,,,0.00,meteohub,2013-04-25 18:15:00,
2013-04-25 14:20:00,70.7,38.7,30.22,NW,315,0.0,8.0,31,0.00,,,0.00,meteohub,2013-04-25 18:20:00,
2013-04-25 14:25:00,71.4,39.2,30.22,ENE,68,3.0,6.0,31,0.00,,,0.00,meteohub,2013-04-25 18:25:00,
2013-04-25 14:30:00,72.3,39.2,30.22,WNW,292,3.0,5.0,30,0.00,,,0.00,meteohub,2013-04-25 18:30:00,
2013-04-25 14:35:00,70.3,39.0,30.22,WSW,248,5.0,5.0,32,0.00,,,0.00,meteohub,2013-04-25 18:35:00,
2013-04-25 14:40:00,70.0,38.8,30.22,SW,225,3.0,5.0,32,0.00,,,0.00,meteohub,2013-04-25 18:40:00,
2013-04-25 14:45:00,70.2,36.5,30.22,West,270,3.0,6.0,29,0.00,,,0.00,meteohub,2013-04-25 18:45:00,
2013-04-25 14:50:00,69.1,36.3,30.22,WSW,248,3.0,6.0,30,0.00,,,0.00,meteohub,2013-04-25 18:50:00,
2013-04-25 14:55:00,70.7,37.8,30.22,ENE,68,4.0,6.0,30,0.00,,,0.00,meteohub,2013-04-25 18:55:00,
2013-04-25 15:00:00,72.1,38.1,30.22,WSW,248,2.0,6.0,29,0.00,,,0.00,meteohub,2013-04-25 19:00:00,
2013-04-25 15:05:00,72.1,38.1,30.22,ESE,112,4.0,6.0,29,0.00,,,0.00,meteohub,2013-04-25 19:05:00,
2013-04-25 15:10:00,72.3,36.5,30.22,West,270,3.0,6.0,27,0.00,,,0.00,meteohub,2013-04-25 19:10:00,
2013-04-25 15:15:00,72.1,37.2,30.22,West,270,2.0,6.0,28,0.00,,,0.00,meteohub,2013-04-25 19:15:00,
2013-04-25 15:20:00,72.9,36.0,30.22,SSE,158,3.0,5.0,26,0.00,,,0.00,meteohub,2013-04-25 19:20:00,
2013-04-25 15:25:00,72.5,35.6,30.22,West,270,5.0,5.0,26,0.00,,,0.00,meteohub,2013-04-25 19:25:00,
2013-04-25 15:30:00,72.3,35.6,30.22,SSE,158,3.0,5.0,26,0.00,,,0.00,meteohub,2013-04-25 19:30:00,
2013-04-25 15:35:00,72.9,36.0,30.22,South,180,4.0,5.0,26,0.00,,,0.00,meteohub,2013-04-25 19:35:00,
2013-04-25 15:40:00,72.9,36.0,30.22,ESE,112,4.0,5.0,26,0.00,,,0.00,meteohub,2013-04-25 19:40:00,
2013-04-25 15:45:00,72.1,35.4,30.19,NNW,338,3.0,8.0,26,0.00,,,0.00,meteohub,2013-04-25 19:45:00,
2013-04-25 15:50:00,73.4,36.5,30.19,NE,45,0.0,8.0,26,0.00,,,0.00,meteohub,2013-04-25 19:50:00,
2013-04-25 15:55:00,74.1,36.0,30.19,NNE,22,3.0,6.0,25,0.00,,,0.00,meteohub,2013-04-25 19:55:00,
2013-04-25 16:00:00,73.0,35.1,30.19,NNE,22,0.0,4.0,25,0.00,,,0.00,meteohub,2013-04-25 20:00:00,
2013-04-25 16:05:00,74.1,36.0,30.19,WSW,248,5.0,5.0,25,0.00,,,0.00,meteohub,2013-04-25 20:05:00,
2013-04-25 16:10:00,73.6,34.5,30.19,North,0,4.0,5.0,24,0.00,,,0.00,meteohub,2013-04-25 20:10:00,
2013-04-25 16:15:00,73.4,34.3,30.19,North,0,3.0,5.0,24,0.00,,,0.00,meteohub,2013-04-25 20:15:00,
2013-04-25 16:20:00,74.3,34.2,30.19,NNE,22,0.0,5.0,23,0.00,,,0.00,meteohub,2013-04-25 20:20:00,
2013-04-25 16:25:00,73.9,34.9,30.19,ESE,112,3.0,6.0,24,0.00,,,0.00,meteohub,2013-04-25 20:25:00,
2013-04-25 16:30:00,74.5,36.3,30.19,South,180,5.0,6.0,25,0.00,,,0.00,meteohub,2013-04-25 20:30:00,
2013-04-25 16:35:00,73.6,34.5,30.19,NNW,338,3.0,6.0,24,0.00,,,0.00,meteohub,2013-04-25 20:35:00,
2013-04-25 16:40:00,71.4,32.7,30.19,NNE,22,3.0,5.0,24,0.00,,,0.00,meteohub,2013-04-25 20:40:00,
2013-04-25 16:45:00,71.1,33.4,30.19,West,270,0.0,4.0,25,0.00,,,0.00,meteohub,2013-04-25 20:45:00,
2013-04-25 16:50:00,71.6,32.9,30.19,SE,135,0.0,5.0,24,0.00,,,0.00,meteohub,2013-04-25 20:50:00,
2013-04-25 16:55:00,70.3,32.9,30.19,WNW,292,0.0,5.0,25,0.00,,,0.00,meteohub,2013-04-25 20:55:00,
2013-04-25 17:00:00,69.6,33.3,30.19,WNW,292,0.0,5.0,26,0.00,,,0.00,meteohub,2013-04-25 21:00:00,
2013-04-25 17:05:00,69.8,32.4,30.19,WNW,292,3.0,5.0,25,0.00,,,0.00,meteohub,2013-04-25 21:05:00,
2013-04-25 17:10:00,70.0,33.4,30.19,WSW,248,4.0,4.0,26,0.00,,,0.00,meteohub,2013-04-25 21:10:00,
2013-04-25 17:15:00,71.2,34.5,30.19,West,270,0.0,4.0,26,0.00,,,0.00,meteohub,2013-04-25 21:15:00,
2013-04-25 17:20:00,72.7,33.8,30.19,ENE,68,5.0,5.0,24,0.00,,,0.00,meteohub,2013-04-25 21:20:00,
2013-04-25 17:25:00,73.0,35.1,30.19,SW,225,3.0,6.0,25,0.00,,,0.00,meteohub,2013-04-25 21:25:00,
2013-04-25 17:30:00,73.4,34.3,30.19,SW,225,4.0,6.0,24,0.00,,,0.00,meteohub,2013-04-25 21:30:00,
2013-04-25 17:35:00,73.9,34.9,30.19,East,90,0.0,6.0,24,0.00,,,0.00,meteohub,2013-04-25 21:35:00,
2013-04-25 17:40:00,73.8,33.6,30.19,West,270,0.0,5.0,23,0.00,,,0.00,meteohub,2013-04-25 21:40:00,
2013-04-25 17:45:00,74.1,34.0,30.19,West,270,0.0,4.0,23,0.00,,,0.00,meteohub,2013-04-25 21:45:00,
2013-04-25 17:50:00,74.5,34.3,30.19,SW,225,3.0,5.0,23,0.00,,,0.00,meteohub,2013-04-25 21:50:00,
2013-04-25 17:55:00,74.1,34.0,30.19,ENE,68,2.0,5.0,23,0.00,,,0.00,meteohub,2013-04-25 21:55:00,
2013-04-25 18:00:00,73.6,33.4,30.19,SSE,158,3.0,5.0,23,0.00,,,0.00,meteohub,2013-04-25 22:00:00,
2013-04-25 18:05:00,73.6,33.4,30.19,SSE,158,0.0,4.0,23,0.00,,,0.00,meteohub,2013-04-25 22:05:00,
2013-04-25 18:10:00,73.8,33.6,30.19,East,90,3.0,4.0,23,0.00,,,0.00,meteohub,2013-04-25 22:10:00,
2013-04-25 18:15:00,72.3,32.4,30.19,NNE,22,3.0,5.0,23,0.00,,,0.00,meteohub,2013-04-25 22:15:00,
2013-04-25 18:20:00,72.5,32.5,30.19,North,0,3.0,6.0,23,0.00,,,0.00,meteohub,2013-04-25 22:20:00,
2013-04-25 18:25:00,70.3,30.7,30.19,NNE,22,3.0,6.0,23,0.00,,,0.00,meteohub,2013-04-25 22:25:00,
2013-04-25 18:30:00,69.1,29.7,30.19,North,0,0.0,6.0,23,0.00,,,0.00,meteohub,2013-04-25 22:30:00,
2013-04-25 18:35:00,68.7,30.4,30.19,NNE,22,0.0,5.0,24,0.00,,,0.00,meteohub,2013-04-25 22:35:00,
2013-04-25 18:40:00,68.7,30.4,30.19,NNE,22,0.0,5.0,24,0.00,,,0.00,meteohub,2013-04-25 22:40:00,
2013-04-25 18:45:00,68.0,29.8,30.19,NNE,22,0.0,4.0,24,0.00,,,0.00,meteohub,2013-04-25 22:45:00,
2013-04-25 18:50:00,67.5,30.4,30.19,NE,45,2.0,4.0,25,0.00,,,0.00,meteohub,2013-04-25 22:50:00,
2013-04-25 18:55:00,67.1,30.0,30.19,NE,45,0.0,4.0,25,0.00,,,0.00,meteohub,2013-04-25 22:55:00,
2013-04-25 19:00:00,66.6,30.6,30.19,NE,45,0.0,4.0,26,0.00,,,0.00,meteohub,2013-04-25 23:00:00,
2013-04-25 19:05:00,66.2,30.4,30.19,NE,45,0.0,2.0,26,0.00,,,0.00,meteohub,2013-04-25 23:05:00,
2013-04-25 19:10:00,65.7,31.6,30.19,NE,45,0.0,0.0,28,0.00,,,0.00,meteohub,2013-04-25 23:10:00,
2013-04-25 19:15:00,65.1,31.3,30.19,NE,45,0.0,2.0,28,0.00,,,0.00,meteohub,2013-04-25 23:15:00,
2013-04-25 19:20:00,64.8,31.8,30.19,NE,45,0.0,2.0,29,0.00,,,0.00,meteohub,2013-04-25 23:20:00,
2013-04-25 19:25:00,64.4,34.0,30.22,NE,45,0.0,2.0,32,0.00,,,0.00,meteohub,2013-04-25 23:25:00,
2013-04-25 19:30:00,63.7,34.7,30.22,NE,45,0.0,0.0,34,0.00,,,0.00,meteohub,2013-04-25 23:30:00,
2013-04-25 19:35:00,63.1,35.8,30.22,NE,45,0.0,0.0,36,0.00,,,0.00,meteohub,2013-04-25 23:35:00,
2013-04-25 19:40:00,62.6,36.0,30.22,NE,45,0.0,0.0,37,0.00,,,0.00,meteohub,2013-04-25 23:40:00,
2013-04-25 19:45:00,61.9,36.7,30.22,NE,45,0.0,0.0,39,0.00,,,0.00,meteohub,2013-04-25 23:45:00,
2013-04-25 19:50:00,61.3,36.9,30.22,NE,45,0.0,0.0,40,0.00,,,0.00,meteohub,2013-04-25 23:50:00,
2013-04-25 19:56:00,60.8,36.3,30.22,NE,45,0.0,0.0,40,0.00,,,0.00,meteohub,2013-04-25 23:56:00,
2013-04-25 20:01:00,60.1,38.1,30.22,NE,45,0.0,0.0,44,0.00,,,0.00,meteohub,2013-04-26 00:01:00,
2013-04-25 20:06:00,59.4,38.7,30.22,NE,45,0.0,0.0,46,0.00,,,0.00,meteohub,2013-04-26 00:06:00,
2013-04-25 20:11:00,58.8,39.2,30.22,NE,45,0.0,0.0,48,0.00,,,0.00,meteohub,2013-04-26 00:11:00,
2013-04-25 20:16:00,58.3,39.2,30.22,NE,45,0.0,0.0,49,0.00,,,0.00,meteohub,2013-04-26 00:16:00,
2013-04-25 20:21:00,57.7,39.7,30.22,NE,45,0.0,0.0,51,0.00,,,0.00,meteohub,2013-04-26 00:21:00,
2013-04-25 20:26:00,57.2,39.2,30.22,NE,45,0.0,0.0,51,0.00,,,0.00,meteohub,2013-04-26 00:26:00,
2013-04-25 20:31:00,56.7,39.7,30.22,NE,45,0.0,0.0,53,0.00,,,0.00,meteohub,2013-04-26 00:31:00,
2013-04-25 20:36:00,56.3,40.3,30.22,NE,45,0.0,0.0,55,0.00,,,0.00,meteohub,2013-04-26 00:36:00,
2013-04-25 20:41:00,55.9,40.5,30.22,NE,45,0.0,0.0,56,0.00,,,0.00,meteohub,2013-04-26 00:41:00,
2013-04-25 20:46:00,55.6,41.0,30.22,NE,45,0.0,0.0,58,0.00,,,0.00,meteohub,2013-04-26 00:46:00,
2013-04-25 20:51:00,55.2,41.2,30.22,NE,45,0.0,0.0,59,0.00,,,0.00,meteohub,2013-04-26 00:51:00,
2013-04-25 20:56:00,54.7,41.0,30.25,NE,45,0.0,0.0,60,0.00,,,0.00,meteohub,2013-04-26 00:56:00,
2013-04-25 21:01:00,54.5,41.4,30.25,NE,45,0.0,0.0,61,0.00,,,0.00,meteohub,2013-04-26 01:01:00,
2013-04-25 21:06:00,54.1,41.0,30.25,NE,45,0.0,0.0,61,0.00,,,0.00,meteohub,2013-04-26 01:06:00,
2013-04-25 21:11:00,54.0,41.2,30.25,NE,45,0.0,0.0,62,0.00,,,0.00,meteohub,2013-04-26 01:11:00,
2013-04-25 21:16:00,54.0,41.7,30.25,NE,45,0.0,0.0,63,0.00,,,0.00,meteohub,2013-04-26 01:16:00,
2013-04-25 21:21:00,53.8,41.5,30.25,NE,45,0.0,0.0,63,0.00,,,0.00,meteohub,2013-04-26 01:21:00,
2013-04-25 21:26:00,53.6,41.4,30.25,NE,45,0.0,0.0,63,0.00,,,0.00,meteohub,2013-04-26 01:26:00,
2013-04-25 21:31:00,53.6,42.1,30.25,NE,45,0.0,3.0,65,0.00,,,0.00,meteohub,2013-04-26 01:31:00,
2013-04-25 21:36:00,53.4,41.9,30.25,NE,45,0.0,3.0,65,0.00,,,0.00,meteohub,2013-04-26 01:36:00,
2013-04-25 21:41:00,53.2,42.3,30.25,NE,45,0.0,3.0,66,0.00,,,0.00,meteohub,2013-04-26 01:41:00,
2013-04-25 21:46:00,53.1,42.1,30.25,NE,45,0.0,0.0,66,0.00,,,0.00,meteohub,2013-04-26 01:46:00,
2013-04-25 21:51:00,52.7,41.7,30.25,NE,45,0.0,0.0,66,0.00,,,0.00,meteohub,2013-04-26 01:51:00,
2013-04-25 21:56:00,52.5,41.9,30.27,NE,45,0.0,0.0,67,0.00,,,0.00,meteohub,2013-04-26 01:56:00,
2013-04-25 22:01:00,52.5,41.9,30.27,NE,45,0.0,0.0,67,0.00,,,0.00,meteohub,2013-04-26 02:01:00,
2013-04-25 22:06:00,52.3,42.1,30.27,NE,45,0.0,0.0,68,0.00,,,0.00,meteohub,2013-04-26 02:06:00,
2013-04-25 22:11:00,52.3,42.4,30.27,NE,45,0.0,0.0,69,0.00,,,0.00,meteohub,2013-04-26 02:11:00,
2013-04-25 22:16:00,52.2,42.6,30.27,NE,45,0.0,0.0,70,0.00,,,0.00,meteohub,2013-04-26 02:16:00,
2013-04-25 22:21:00,51.8,42.3,30.27,NE,45,0.0,0.0,70,0.00,,,0.00,meteohub,2013-04-26 02:21:00,
2013-04-25 22:26:00,51.6,42.4,30.27,NE,45,0.0,0.0,71,0.00,,,0.00,meteohub,2013-04-26 02:26:00,
2013-04-25 22:31:00,51.6,43.0,30.27,NE,45,0.0,0.0,72,0.00,,,0.00,meteohub,2013-04-26 02:31:00,
2013-04-25 22:36:00,51.3,43.3,30.27,NE,45,0.0,0.0,74,0.00,,,0.00,meteohub,2013-04-26 02:36:00,
2013-04-25 22:41:00,51.3,43.9,30.27,NE,45,0.0,0.0,76,0.00,,,0.00,meteohub,2013-04-26 02:41:00,
2013-04-25 22:46:00,51.3,43.9,30.27,NE,45,0.0,0.0,76,0.00,,,0.00,meteohub,2013-04-26 02:46:00,
2013-04-25 22:51:00,51.4,44.1,30.27,NE,45,0.0,0.0,76,0.00,,,0.00,meteohub,2013-04-26 02:51:00,
2013-04-25 22:56:00,51.4,44.1,30.27,NE,45,0.0,0.0,76,0.00,,,0.00,meteohub,2013-04-26 02:56:00,
2013-04-25 23:01:00,51.4,44.1,30.27,NE,45,0.0,0.0,76,0.00,,,0.00,meteohub,2013-04-26 03:01:00,
2013-04-25 23:06:00,51.3,43.9,30.27,NE,45,0.0,0.0,76,0.00,,,0.00,meteohub,2013-04-26 03:06:00,
2013-04-25 23:11:00,51.3,43.9,30.27,NE,45,0.0,0.0,76,0.00,,,0.00,meteohub,2013-04-26 03:11:00,
2013-04-25 23:16:00,50.9,43.5,30.27,NE,45,0.0,0.0,76,0.00,,,0.00,meteohub,2013-04-26 03:16:00,
2013-04-25 23:21:00,50.7,43.7,30.27,NE,45,0.0,0.0,77,0.00,,,0.00,meteohub,2013-04-26 03:21:00,
2013-04-25 23:26:00,50.5,43.9,30.27,NE,45,0.0,0.0,78,0.00,,,0.00,meteohub,2013-04-26 03:26:00,
2013-04-25 23:31:00,50.4,43.7,30.27,NE,45,0.0,0.0,78,0.00,,,0.00,meteohub,2013-04-26 03:31:00,
2013-04-25 23:36:00,50.0,43.7,30.27,NE,45,0.0,0.0,79,0.00,,,0.00,meteohub,2013-04-26 03:36:00,
2013-04-25 23:41:00,49.8,43.9,30.27,NE,45,0.0,0.0,80,0.00,,,0.00,meteohub,2013-04-26 03:41:00,
2013-04-25 23:46:00,49.8,44.2,30.27,NE,45,0.0,0.0,81,0.00,,,0.00,meteohub,2013-04-26 03:46:00,
2013-04-25 23:51:00,49.6,44.1,30.27,NE,45,0.0,0.0,81,0.00,,,0.00,meteohub,2013-04-26 03:51:00,
2013-04-25 23:56:00,49.5,44.2,30.27,NE,45,0.0,0.0,82,0.00,,,0.00,meteohub,2013-04-26 03:56:00,